Index of /20260509/WXO-DD/model_rdps/10km/00/063
Name Last modified Size Description
Parent Directory -
20260509T00Z_MSC_RDPS_AbsoluteVorticity_IsbL-0250_RLatLon0.09_PT063H.grib2 2026-05-09 02:58 493K
20260509T00Z_MSC_RDPS_AbsoluteVorticity_IsbL-0500_RLatLon0.09_PT063H.grib2 2026-05-09 02:58 577K
20260509T00Z_MSC_RDPS_AbsoluteVorticity_IsbL-0700_RLatLon0.09_PT063H.grib2 2026-05-09 02:58 623K
20260509T00Z_MSC_RDPS_AbsoluteVorticity_IsbL-0850_RLatLon0.09_PT063H.grib2 2026-05-09 02:58 791K
20260509T00Z_MSC_RDPS_AirTemp_AGL-120m_RLatLon0.09_PT063H.grib2 2026-05-09 02:58 385K
20260509T00Z_MSC_RDPS_AirTemp_AGL-2m_RLatLon0.09_PT063H.grib2 2026-05-09 02:58 630K
20260509T00Z_MSC_RDPS_AirTemp_AGL-40m_RLatLon0.09_PT063H.grib2 2026-05-09 02:58 396K
20260509T00Z_MSC_RDPS_AirTemp_AGL-80m_RLatLon0.09_PT063H.grib2 2026-05-09 02:58 390K
20260509T00Z_MSC_RDPS_AirTemp_IsbL-0001_RLatLon0.09_PT063H.grib2 2026-05-09 02:58 247K
20260509T00Z_MSC_RDPS_AirTemp_IsbL-0005_RLatLon0.09_PT063H.grib2 2026-05-09 02:58 293K
20260509T00Z_MSC_RDPS_AirTemp_IsbL-0010_RLatLon0.09_PT063H.grib2 2026-05-09 02:58 360K
20260509T00Z_MSC_RDPS_AirTemp_IsbL-0020_RLatLon0.09_PT063H.grib2 2026-05-09 02:58 321K
20260509T00Z_MSC_RDPS_AirTemp_IsbL-0030_RLatLon0.09_PT063H.grib2 2026-05-09 02:58 342K
20260509T00Z_MSC_RDPS_AirTemp_IsbL-0050_RLatLon0.09_PT063H.grib2 2026-05-09 02:58 310K
20260509T00Z_MSC_RDPS_AirTemp_IsbL-0100_RLatLon0.09_PT063H.grib2 2026-05-09 02:58 422K
20260509T00Z_MSC_RDPS_AirTemp_IsbL-0150_RLatLon0.09_PT063H.grib2 2026-05-09 02:58 401K
20260509T00Z_MSC_RDPS_AirTemp_IsbL-0175_RLatLon0.09_PT063H.grib2 2026-05-09 02:58 393K
20260509T00Z_MSC_RDPS_AirTemp_IsbL-0200_RLatLon0.09_PT063H.grib2 2026-05-09 02:58 401K
20260509T00Z_MSC_RDPS_AirTemp_IsbL-0225_RLatLon0.09_PT063H.grib2 2026-05-09 02:58 410K
20260509T00Z_MSC_RDPS_AirTemp_IsbL-0250_RLatLon0.09_PT063H.grib2 2026-05-09 02:58 424K
20260509T00Z_MSC_RDPS_AirTemp_IsbL-0275_RLatLon0.09_PT063H.grib2 2026-05-09 02:58 404K
20260509T00Z_MSC_RDPS_AirTemp_IsbL-0300_RLatLon0.09_PT063H.grib2 2026-05-09 02:58 410K
20260509T00Z_MSC_RDPS_AirTemp_IsbL-0350_RLatLon0.09_PT063H.grib2 2026-05-09 02:58 421K
20260509T00Z_MSC_RDPS_AirTemp_IsbL-0400_RLatLon0.09_PT063H.grib2 2026-05-09 02:58 425K
20260509T00Z_MSC_RDPS_AirTemp_IsbL-0450_RLatLon0.09_PT063H.grib2 2026-05-09 02:58 434K
20260509T00Z_MSC_RDPS_AirTemp_IsbL-0500_RLatLon0.09_PT063H.grib2 2026-05-09 02:58 444K
20260509T00Z_MSC_RDPS_AirTemp_IsbL-0550_RLatLon0.09_PT063H.grib2 2026-05-09 02:58 462K
20260509T00Z_MSC_RDPS_AirTemp_IsbL-0600_RLatLon0.09_PT063H.grib2 2026-05-09 02:58 482K
20260509T00Z_MSC_RDPS_AirTemp_IsbL-0650_RLatLon0.09_PT063H.grib2 2026-05-09 02:58 497K
20260509T00Z_MSC_RDPS_AirTemp_IsbL-0700_RLatLon0.09_PT063H.grib2 2026-05-09 02:58 521K
20260509T00Z_MSC_RDPS_AirTemp_IsbL-0750_RLatLon0.09_PT063H.grib2 2026-05-09 02:58 525K
20260509T00Z_MSC_RDPS_AirTemp_IsbL-0800_RLatLon0.09_PT063H.grib2 2026-05-09 02:58 628K
20260509T00Z_MSC_RDPS_AirTemp_IsbL-0850_RLatLon0.09_PT063H.grib2 2026-05-09 02:58 637K
20260509T00Z_MSC_RDPS_AirTemp_IsbL-0875_RLatLon0.09_PT063H.grib2 2026-05-09 02:58 654K
20260509T00Z_MSC_RDPS_AirTemp_IsbL-0900_RLatLon0.09_PT063H.grib2 2026-05-09 02:58 665K
20260509T00Z_MSC_RDPS_AirTemp_IsbL-0925_RLatLon0.09_PT063H.grib2 2026-05-09 02:58 670K
20260509T00Z_MSC_RDPS_AirTemp_IsbL-0950_RLatLon0.09_PT063H.grib2 2026-05-09 02:58 541K
20260509T00Z_MSC_RDPS_AirTemp_IsbL-0970_RLatLon0.09_PT063H.grib2 2026-05-09 02:58 539K
20260509T00Z_MSC_RDPS_AirTemp_IsbL-0985_RLatLon0.09_PT063H.grib2 2026-05-09 02:58 529K
20260509T00Z_MSC_RDPS_AirTemp_IsbL-1000_RLatLon0.09_PT063H.grib2 2026-05-09 02:58 511K
20260509T00Z_MSC_RDPS_AirTemp_IsbL-1015_RLatLon0.09_PT063H.grib2 2026-05-09 02:58 511K
20260509T00Z_MSC_RDPS_Albedo_Sfc_RLatLon0.09_PT063H.grib2 2026-05-09 02:58 159K
20260509T00Z_MSC_RDPS_CAPE_Sfc_RLatLon0.09_PT063H.grib2 2026-05-09 02:58 1.8M
20260509T00Z_MSC_RDPS_CIN_Sfc_RLatLon0.09_PT063H.grib2 2026-05-09 02:58 1.3M
20260509T00Z_MSC_RDPS_CloudWater_EAtm_RLatLon0.09_PT063H.grib2 2026-05-09 02:58 228K
20260509T00Z_MSC_RDPS_ConvectivePrecip-Accum_Sfc_RLatLon0.09_PT063H.grib2 2026-05-09 02:58 1.3M
20260509T00Z_MSC_RDPS_DewPointDepression_AGL-2m_RLatLon0.09_PT063H.grib2 2026-05-09 02:58 418K
20260509T00Z_MSC_RDPS_DewPointDepression_IsbL-0001_RLatLon0.09_PT063H.grib2 2026-05-09 02:58 193
20260509T00Z_MSC_RDPS_DewPointDepression_IsbL-0005_RLatLon0.09_PT063H.grib2 2026-05-09 02:58 193
20260509T00Z_MSC_RDPS_DewPointDepression_IsbL-0010_RLatLon0.09_PT063H.grib2 2026-05-09 02:58 193
20260509T00Z_MSC_RDPS_DewPointDepression_IsbL-0020_RLatLon0.09_PT063H.grib2 2026-05-09 02:58 193
20260509T00Z_MSC_RDPS_DewPointDepression_IsbL-0030_RLatLon0.09_PT063H.grib2 2026-05-09 02:58 193
20260509T00Z_MSC_RDPS_DewPointDepression_IsbL-0050_RLatLon0.09_PT063H.grib2 2026-05-09 02:58 79K
20260509T00Z_MSC_RDPS_DewPointDepression_IsbL-0100_RLatLon0.09_PT063H.grib2 2026-05-09 02:58 112K
20260509T00Z_MSC_RDPS_DewPointDepression_IsbL-0150_RLatLon0.09_PT063H.grib2 2026-05-09 02:58 144K
20260509T00Z_MSC_RDPS_DewPointDepression_IsbL-0175_RLatLon0.09_PT063H.grib2 2026-05-09 02:58 163K
20260509T00Z_MSC_RDPS_DewPointDepression_IsbL-0200_RLatLon0.09_PT063H.grib2 2026-05-09 02:58 212K
20260509T00Z_MSC_RDPS_DewPointDepression_IsbL-0225_RLatLon0.09_PT063H.grib2 2026-05-09 02:58 257K
20260509T00Z_MSC_RDPS_DewPointDepression_IsbL-0250_RLatLon0.09_PT063H.grib2 2026-05-09 02:58 301K
20260509T00Z_MSC_RDPS_DewPointDepression_IsbL-0275_RLatLon0.09_PT063H.grib2 2026-05-09 02:58 308K
20260509T00Z_MSC_RDPS_DewPointDepression_IsbL-0300_RLatLon0.09_PT063H.grib2 2026-05-09 02:58 325K
20260509T00Z_MSC_RDPS_DewPointDepression_IsbL-0350_RLatLon0.09_PT063H.grib2 2026-05-09 02:58 333K
20260509T00Z_MSC_RDPS_DewPointDepression_IsbL-0400_RLatLon0.09_PT063H.grib2 2026-05-09 02:58 345K
20260509T00Z_MSC_RDPS_DewPointDepression_IsbL-0450_RLatLon0.09_PT063H.grib2 2026-05-09 02:58 353K
20260509T00Z_MSC_RDPS_DewPointDepression_IsbL-0500_RLatLon0.09_PT063H.grib2 2026-05-09 02:58 357K
20260509T00Z_MSC_RDPS_DewPointDepression_IsbL-0550_RLatLon0.09_PT063H.grib2 2026-05-09 02:58 368K
20260509T00Z_MSC_RDPS_DewPointDepression_IsbL-0600_RLatLon0.09_PT063H.grib2 2026-05-09 02:58 382K
20260509T00Z_MSC_RDPS_DewPointDepression_IsbL-0650_RLatLon0.09_PT063H.grib2 2026-05-09 02:58 388K
20260509T00Z_MSC_RDPS_DewPointDepression_IsbL-0700_RLatLon0.09_PT063H.grib2 2026-05-09 02:58 395K
20260509T00Z_MSC_RDPS_DewPointDepression_IsbL-0750_RLatLon0.09_PT063H.grib2 2026-05-09 02:58 413K
20260509T00Z_MSC_RDPS_DewPointDepression_IsbL-0800_RLatLon0.09_PT063H.grib2 2026-05-09 02:58 458K
20260509T00Z_MSC_RDPS_DewPointDepression_IsbL-0850_RLatLon0.09_PT063H.grib2 2026-05-09 02:58 472K
20260509T00Z_MSC_RDPS_DewPointDepression_IsbL-0875_RLatLon0.09_PT063H.grib2 2026-05-09 02:58 466K
20260509T00Z_MSC_RDPS_DewPointDepression_IsbL-0900_RLatLon0.09_PT063H.grib2 2026-05-09 02:58 454K
20260509T00Z_MSC_RDPS_DewPointDepression_IsbL-0925_RLatLon0.09_PT063H.grib2 2026-05-09 02:58 446K
20260509T00Z_MSC_RDPS_DewPointDepression_IsbL-0950_RLatLon0.09_PT063H.grib2 2026-05-09 02:58 447K
20260509T00Z_MSC_RDPS_DewPointDepression_IsbL-0970_RLatLon0.09_PT063H.grib2 2026-05-09 02:58 447K
20260509T00Z_MSC_RDPS_DewPointDepression_IsbL-0985_RLatLon0.09_PT063H.grib2 2026-05-09 02:58 443K
20260509T00Z_MSC_RDPS_DewPointDepression_IsbL-1000_RLatLon0.09_PT063H.grib2 2026-05-09 02:58 435K
20260509T00Z_MSC_RDPS_DewPointDepression_IsbL-1015_RLatLon0.09_PT063H.grib2 2026-05-09 02:58 424K
20260509T00Z_MSC_RDPS_DewPoint_AGL-2m_RLatLon0.09_PT063H.grib2 2026-05-09 02:58 449K
20260509T00Z_MSC_RDPS_DownwardLongwaveRadiationFlux-Accum_Sfc_RLatLon0.09_PT063H.grib2 2026-05-09 02:58 400K
20260509T00Z_MSC_RDPS_DownwardShortwaveRadiationFlux-Accum_NTAtm_RLatLon0.09_PT063H.grib2 2026-05-09 02:58 157K
20260509T00Z_MSC_RDPS_DownwardShortwaveRadiationFlux-Accum_Sfc_RLatLon0.09_PT063H.grib2 2026-05-09 02:58 601K
20260509T00Z_MSC_RDPS_FreezingRain-Accum1h_Sfc_RLatLon0.09_PT063H.grib2 2026-05-09 02:58 41K
20260509T00Z_MSC_RDPS_FreezingRain-Accum3h_Sfc_RLatLon0.09_PT063H.grib2 2026-05-09 02:58 55K
20260509T00Z_MSC_RDPS_FreezingRain-Accum_Sfc_RLatLon0.09_PT063H.grib2 2026-05-09 02:58 190K
20260509T00Z_MSC_RDPS_GeopotentialHeight_IsbL-0001_RLatLon0.09_PT063H.grib2 2026-05-09 02:58 248K
20260509T00Z_MSC_RDPS_GeopotentialHeight_IsbL-0005_RLatLon0.09_PT063H.grib2 2026-05-09 02:58 341K
20260509T00Z_MSC_RDPS_GeopotentialHeight_IsbL-0010_RLatLon0.09_PT063H.grib2 2026-05-09 02:58 311K
20260509T00Z_MSC_RDPS_GeopotentialHeight_IsbL-0020_RLatLon0.09_PT063H.grib2 2026-05-09 02:58 310K
20260509T00Z_MSC_RDPS_GeopotentialHeight_IsbL-0030_RLatLon0.09_PT063H.grib2 2026-05-09 02:58 312K
20260509T00Z_MSC_RDPS_GeopotentialHeight_IsbL-0050_RLatLon0.09_PT063H.grib2 2026-05-09 02:58 311K
20260509T00Z_MSC_RDPS_GeopotentialHeight_IsbL-0100_RLatLon0.09_PT063H.grib2 2026-05-09 02:58 283K
20260509T00Z_MSC_RDPS_GeopotentialHeight_IsbL-0150_RLatLon0.09_PT063H.grib2 2026-05-09 02:58 225K
20260509T00Z_MSC_RDPS_GeopotentialHeight_IsbL-0175_RLatLon0.09_PT063H.grib2 2026-05-09 02:58 227K
20260509T00Z_MSC_RDPS_GeopotentialHeight_IsbL-0200_RLatLon0.09_PT063H.grib2 2026-05-09 02:58 229K
20260509T00Z_MSC_RDPS_GeopotentialHeight_IsbL-0225_RLatLon0.09_PT063H.grib2 2026-05-09 02:58 231K
20260509T00Z_MSC_RDPS_GeopotentialHeight_IsbL-0250_RLatLon0.09_PT063H.grib2 2026-05-09 02:58 234K
20260509T00Z_MSC_RDPS_GeopotentialHeight_IsbL-0275_RLatLon0.09_PT063H.grib2 2026-05-09 02:58 233K
20260509T00Z_MSC_RDPS_GeopotentialHeight_IsbL-0300_RLatLon0.09_PT063H.grib2 2026-05-09 02:58 234K
20260509T00Z_MSC_RDPS_GeopotentialHeight_IsbL-0350_RLatLon0.09_PT063H.grib2 2026-05-09 02:58 229K
20260509T00Z_MSC_RDPS_GeopotentialHeight_IsbL-0400_RLatLon0.09_PT063H.grib2 2026-05-09 02:58 299K
20260509T00Z_MSC_RDPS_GeopotentialHeight_IsbL-0450_RLatLon0.09_PT063H.grib2 2026-05-09 02:58 295K
20260509T00Z_MSC_RDPS_GeopotentialHeight_IsbL-0500_RLatLon0.09_PT063H.grib2 2026-05-09 02:58 290K
20260509T00Z_MSC_RDPS_GeopotentialHeight_IsbL-0550_RLatLon0.09_PT063H.grib2 2026-05-09 02:58 286K
20260509T00Z_MSC_RDPS_GeopotentialHeight_IsbL-0600_RLatLon0.09_PT063H.grib2 2026-05-09 02:58 282K
20260509T00Z_MSC_RDPS_GeopotentialHeight_IsbL-0650_RLatLon0.09_PT063H.grib2 2026-05-09 02:58 253K
20260509T00Z_MSC_RDPS_GeopotentialHeight_IsbL-0700_RLatLon0.09_PT063H.grib2 2026-05-09 02:58 252K
20260509T00Z_MSC_RDPS_GeopotentialHeight_IsbL-0750_RLatLon0.09_PT063H.grib2 2026-05-09 02:58 255K
20260509T00Z_MSC_RDPS_GeopotentialHeight_IsbL-0800_RLatLon0.09_PT063H.grib2 2026-05-09 02:58 348K
20260509T00Z_MSC_RDPS_GeopotentialHeight_IsbL-0850_RLatLon0.09_PT063H.grib2 2026-05-09 02:58 358K
20260509T00Z_MSC_RDPS_GeopotentialHeight_IsbL-0875_RLatLon0.09_PT063H.grib2 2026-05-09 02:58 359K
20260509T00Z_MSC_RDPS_GeopotentialHeight_IsbL-0900_RLatLon0.09_PT063H.grib2 2026-05-09 02:58 363K
20260509T00Z_MSC_RDPS_GeopotentialHeight_IsbL-0925_RLatLon0.09_PT063H.grib2 2026-05-09 02:58 366K
20260509T00Z_MSC_RDPS_GeopotentialHeight_IsbL-0950_RLatLon0.09_PT063H.grib2 2026-05-09 02:58 368K
20260509T00Z_MSC_RDPS_GeopotentialHeight_IsbL-0970_RLatLon0.09_PT063H.grib2 2026-05-09 02:58 375K
20260509T00Z_MSC_RDPS_GeopotentialHeight_IsbL-0985_RLatLon0.09_PT063H.grib2 2026-05-09 02:58 386K
20260509T00Z_MSC_RDPS_GeopotentialHeight_IsbL-1000_RLatLon0.09_PT063H.grib2 2026-05-09 02:58 400K
20260509T00Z_MSC_RDPS_GeopotentialHeight_IsbL-1015_RLatLon0.09_PT063H.grib2 2026-05-09 02:58 418K
20260509T00Z_MSC_RDPS_HighLowPressure_MSL_RLatLon0.09_PT063H.json 2026-05-09 02:50 21K
20260509T00Z_MSC_RDPS_Humidex_Sfc_RLatLon0.09_PT063H.grib2 2026-05-09 02:58 2.4M
20260509T00Z_MSC_RDPS_IcePellets-Accum1h_Sfc_RLatLon0.09_PT063H.grib2 2026-05-09 02:58 12K
20260509T00Z_MSC_RDPS_IcePellets-Accum3h_Sfc_RLatLon0.09_PT063H.grib2 2026-05-09 02:58 15K
20260509T00Z_MSC_RDPS_IcePellets-Accum_Sfc_RLatLon0.09_PT063H.grib2 2026-05-09 02:58 45K
20260509T00Z_MSC_RDPS_KIndex_Sfc_RLatLon0.09_PT063H.grib2 2026-05-09 02:58 2.5M
20260509T00Z_MSC_RDPS_LatentHeatNetFlux_Sfc_RLatLon0.09_PT063H.grib2 2026-05-09 02:58 391K
20260509T00Z_MSC_RDPS_LiftedIndex-MU-VT_IsbL-0500_RLatLon0.09_PT063H.grib2 2026-05-09 02:58 2.4M
20260509T00Z_MSC_RDPS_NetLongwaveRadiationFlux-Accum_Sfc_RLatLon0.09_PT063H.grib2 2026-05-09 02:58 590K
20260509T00Z_MSC_RDPS_NetShortwaveRadiationFlux-Accum_Sfc_RLatLon0.09_PT063H.grib2 2026-05-09 02:58 601K
20260509T00Z_MSC_RDPS_PlanetaryBoundaryLayerHeight_Sfc_RLatLon0.09_PT063H.grib2 2026-05-09 02:58 1.2M
20260509T00Z_MSC_RDPS_Precip-Accum1h_Sfc_RLatLon0.09_PT063H.grib2 2026-05-09 02:58 1.3M
20260509T00Z_MSC_RDPS_Precip-Accum3h_Sfc_RLatLon0.09_PT063H.grib2 2026-05-09 02:58 1.4M
20260509T00Z_MSC_RDPS_Precip-Accum_Sfc_RLatLon0.09_PT063H.grib2 2026-05-09 02:58 2.0M
20260509T00Z_MSC_RDPS_PrecipRate_Sfc_RLatLon0.09_PT063H.grib2 2026-05-09 02:58 189K
20260509T00Z_MSC_RDPS_PrecipType-Instant_Sfc_RLatLon0.09_PT063H.grib2 2026-05-09 02:58 632K
20260509T00Z_MSC_RDPS_Pressure-Trend3h_Sfc_RLatLon0.09_PT063H.grib2 2026-05-09 02:58 1.2M
20260509T00Z_MSC_RDPS_Pressure_MSL_RLatLon0.09_PT063H.grib2 2026-05-09 02:58 328K
20260509T00Z_MSC_RDPS_Pressure_PVU-1.5_RLatLon0.09_PT063H.grib2 2026-05-09 02:58 2.5M
20260509T00Z_MSC_RDPS_Pressure_PVU-1_RLatLon0.09_PT063H.grib2 2026-05-09 02:58 2.4M
20260509T00Z_MSC_RDPS_Pressure_PVU-2_RLatLon0.09_PT063H.grib2 2026-05-09 02:58 2.4M
20260509T00Z_MSC_RDPS_Pressure_Sfc_RLatLon0.09_PT063H.grib2 2026-05-09 02:58 500K
20260509T00Z_MSC_RDPS_RadiativeTemp_Sfc_RLatLon0.09_PT063H.grib2 2026-05-09 02:58 320K
20260509T00Z_MSC_RDPS_Rain-Accum1h_Sfc_RLatLon0.09_PT063H.grib2 2026-05-09 02:58 684K
20260509T00Z_MSC_RDPS_Rain-Accum3h_Sfc_RLatLon0.09_PT063H.grib2 2026-05-09 02:58 707K
20260509T00Z_MSC_RDPS_Rain-Accum_Sfc_RLatLon0.09_PT063H.grib2 2026-05-09 02:58 1.7M
20260509T00Z_MSC_RDPS_RelativeHumidity_AGL-2m_RLatLon0.09_PT063H.grib2 2026-05-09 02:58 1.0M
20260509T00Z_MSC_RDPS_RelativeHumidity_IsbL-0010_RLatLon0.09_PT063H.grib2 2026-05-09 02:58 578K
20260509T00Z_MSC_RDPS_RelativeHumidity_IsbL-0020_RLatLon0.09_PT063H.grib2 2026-05-09 02:58 635K
20260509T00Z_MSC_RDPS_RelativeHumidity_IsbL-0030_RLatLon0.09_PT063H.grib2 2026-05-09 02:58 623K
20260509T00Z_MSC_RDPS_RelativeHumidity_IsbL-0050_RLatLon0.09_PT063H.grib2 2026-05-09 02:58 352K
20260509T00Z_MSC_RDPS_RelativeHumidity_IsbL-0100_RLatLon0.09_PT063H.grib2 2026-05-09 02:58 274K
20260509T00Z_MSC_RDPS_RelativeHumidity_IsbL-0150_RLatLon0.09_PT063H.grib2 2026-05-09 02:58 410K
20260509T00Z_MSC_RDPS_RelativeHumidity_IsbL-0175_RLatLon0.09_PT063H.grib2 2026-05-09 02:58 463K
20260509T00Z_MSC_RDPS_RelativeHumidity_IsbL-0200_RLatLon0.09_PT063H.grib2 2026-05-09 02:58 532K
20260509T00Z_MSC_RDPS_RelativeHumidity_IsbL-0225_RLatLon0.09_PT063H.grib2 2026-05-09 02:58 615K
20260509T00Z_MSC_RDPS_RelativeHumidity_IsbL-0250_RLatLon0.09_PT063H.grib2 2026-05-09 02:58 697K
20260509T00Z_MSC_RDPS_RelativeHumidity_IsbL-0275_RLatLon0.09_PT063H.grib2 2026-05-09 02:58 727K
20260509T00Z_MSC_RDPS_RelativeHumidity_IsbL-0300_RLatLon0.09_PT063H.grib2 2026-05-09 02:58 770K
20260509T00Z_MSC_RDPS_RelativeHumidity_IsbL-0350_RLatLon0.09_PT063H.grib2 2026-05-09 02:58 786K
20260509T00Z_MSC_RDPS_RelativeHumidity_IsbL-0400_RLatLon0.09_PT063H.grib2 2026-05-09 02:58 804K
20260509T00Z_MSC_RDPS_RelativeHumidity_IsbL-0450_RLatLon0.09_PT063H.grib2 2026-05-09 02:58 814K
20260509T00Z_MSC_RDPS_RelativeHumidity_IsbL-0500_RLatLon0.09_PT063H.grib2 2026-05-09 02:58 830K
20260509T00Z_MSC_RDPS_RelativeHumidity_IsbL-0550_RLatLon0.09_PT063H.grib2 2026-05-09 02:58 843K
20260509T00Z_MSC_RDPS_RelativeHumidity_IsbL-0600_RLatLon0.09_PT063H.grib2 2026-05-09 02:58 857K
20260509T00Z_MSC_RDPS_RelativeHumidity_IsbL-0650_RLatLon0.09_PT063H.grib2 2026-05-09 02:58 869K
20260509T00Z_MSC_RDPS_RelativeHumidity_IsbL-0700_RLatLon0.09_PT063H.grib2 2026-05-09 02:58 895K
20260509T00Z_MSC_RDPS_RelativeHumidity_IsbL-0750_RLatLon0.09_PT063H.grib2 2026-05-09 02:58 937K
20260509T00Z_MSC_RDPS_RelativeHumidity_IsbL-0800_RLatLon0.09_PT063H.grib2 2026-05-09 02:58 1.0M
20260509T00Z_MSC_RDPS_RelativeHumidity_IsbL-0850_RLatLon0.09_PT063H.grib2 2026-05-09 02:58 1.0M
20260509T00Z_MSC_RDPS_RelativeHumidity_IsbL-0875_RLatLon0.09_PT063H.grib2 2026-05-09 02:58 1.1M
20260509T00Z_MSC_RDPS_RelativeHumidity_IsbL-0900_RLatLon0.09_PT063H.grib2 2026-05-09 02:58 1.1M
20260509T00Z_MSC_RDPS_RelativeHumidity_IsbL-0925_RLatLon0.09_PT063H.grib2 2026-05-09 02:58 1.1M
20260509T00Z_MSC_RDPS_RelativeHumidity_IsbL-0950_RLatLon0.09_PT063H.grib2 2026-05-09 02:58 1.1M
20260509T00Z_MSC_RDPS_RelativeHumidity_IsbL-0970_RLatLon0.09_PT063H.grib2 2026-05-09 02:58 1.1M
20260509T00Z_MSC_RDPS_RelativeHumidity_IsbL-0985_RLatLon0.09_PT063H.grib2 2026-05-09 02:58 1.1M
20260509T00Z_MSC_RDPS_RelativeHumidity_IsbL-1000_RLatLon0.09_PT063H.grib2 2026-05-09 02:58 1.0M
20260509T00Z_MSC_RDPS_RelativeHumidity_IsbL-1015_RLatLon0.09_PT063H.grib2 2026-05-09 02:58 1.0M
20260509T00Z_MSC_RDPS_Runoff-Accum_Sfc_RLatLon0.09_PT063H.grib2 2026-05-09 02:58 47K
20260509T00Z_MSC_RDPS_SWEATIndex_Sfc_RLatLon0.09_PT063H.grib2 2026-05-09 02:58 2.5M
20260509T00Z_MSC_RDPS_SeeingIndex_EAtm_RLatLon0.09_PT063H.grib2 2026-05-09 02:58 1.1M
20260509T00Z_MSC_RDPS_SensibleHeatNetFlux_Sfc_RLatLon0.09_PT063H.grib2 2026-05-09 02:58 271K
20260509T00Z_MSC_RDPS_ShowalterIndex_IsbL-0500_RLatLon0.09_PT063H.grib2 2026-05-09 02:58 2.6M
20260509T00Z_MSC_RDPS_SkyTransparencyIndex_EAtm_RLatLon0.09_PT063H.grib2 2026-05-09 02:58 693K
20260509T00Z_MSC_RDPS_Snow-Accum1h_Sfc_RLatLon0.09_PT063H.grib2 2026-05-09 02:58 472K
20260509T00Z_MSC_RDPS_Snow-Accum3h_Sfc_RLatLon0.09_PT063H.grib2 2026-05-09 02:58 505K
20260509T00Z_MSC_RDPS_Snow-Accum_Sfc_RLatLon0.09_PT063H.grib2 2026-05-09 02:58 664K
20260509T00Z_MSC_RDPS_SnowDensity_Sfc_RLatLon0.09_PT063H.grib2 2026-05-09 02:58 170K
20260509T00Z_MSC_RDPS_SnowDepth_Sfc_RLatLon0.09_PT063H.grib2 2026-05-09 02:58 617K
20260509T00Z_MSC_RDPS_SoilTemp_DBS-0to10cm_RLatLon0.09_PT063H.grib2 2026-05-09 02:58 241K
20260509T00Z_MSC_RDPS_SoilTemp_Sfc_RLatLon0.09_PT063H.grib2 2026-05-09 02:58 287K
20260509T00Z_MSC_RDPS_SoilVolumetricIceContent_Sfc_RLatLon0.09_PT063H.grib2 2026-05-09 02:58 141K
20260509T00Z_MSC_RDPS_SoilVolumetricWaterContent_DBS-0to10cm_RLatLon0.09_PT063H.grib2 2026-05-09 02:58 294K
20260509T00Z_MSC_RDPS_SoilVolumetricWaterContent_DBS-0to1cm_RLatLon0.09_PT063H.grib2 2026-05-09 02:58 346K
20260509T00Z_MSC_RDPS_SpecificHumidity_AGL-120m_RLatLon0.09_PT063H.grib2 2026-05-09 02:58 513K
20260509T00Z_MSC_RDPS_SpecificHumidity_AGL-2m_RLatLon0.09_PT063H.grib2 2026-05-09 02:58 682K
20260509T00Z_MSC_RDPS_SpecificHumidity_AGL-40m_RLatLon0.09_PT063H.grib2 2026-05-09 02:58 517K
20260509T00Z_MSC_RDPS_SpecificHumidity_AGL-80m_RLatLon0.09_PT063H.grib2 2026-05-09 02:58 514K
20260509T00Z_MSC_RDPS_SpecificHumidity_IsbL-0001_RLatLon0.09_PT063H.grib2 2026-05-09 02:58 363K
20260509T00Z_MSC_RDPS_SpecificHumidity_IsbL-0005_RLatLon0.09_PT063H.grib2 2026-05-09 02:58 364K
20260509T00Z_MSC_RDPS_SpecificHumidity_IsbL-0010_RLatLon0.09_PT063H.grib2 2026-05-09 02:58 391K
20260509T00Z_MSC_RDPS_SpecificHumidity_IsbL-0020_RLatLon0.09_PT063H.grib2 2026-05-09 02:58 379K
20260509T00Z_MSC_RDPS_SpecificHumidity_IsbL-0030_RLatLon0.09_PT063H.grib2 2026-05-09 02:58 366K
20260509T00Z_MSC_RDPS_SpecificHumidity_IsbL-0050_RLatLon0.09_PT063H.grib2 2026-05-09 02:58 476K
20260509T00Z_MSC_RDPS_SpecificHumidity_IsbL-0100_RLatLon0.09_PT063H.grib2 2026-05-09 02:58 398K
20260509T00Z_MSC_RDPS_SpecificHumidity_IsbL-0150_RLatLon0.09_PT063H.grib2 2026-05-09 02:58 452K
20260509T00Z_MSC_RDPS_SpecificHumidity_IsbL-0175_RLatLon0.09_PT063H.grib2 2026-05-09 02:58 529K
20260509T00Z_MSC_RDPS_SpecificHumidity_IsbL-0200_RLatLon0.09_PT063H.grib2 2026-05-09 02:58 444K
20260509T00Z_MSC_RDPS_SpecificHumidity_IsbL-0225_RLatLon0.09_PT063H.grib2 2026-05-09 02:58 456K
20260509T00Z_MSC_RDPS_SpecificHumidity_IsbL-0250_RLatLon0.09_PT063H.grib2 2026-05-09 02:58 569K
20260509T00Z_MSC_RDPS_SpecificHumidity_IsbL-0275_RLatLon0.09_PT063H.grib2 2026-05-09 02:58 486K
20260509T00Z_MSC_RDPS_SpecificHumidity_IsbL-0300_RLatLon0.09_PT063H.grib2 2026-05-09 02:58 587K
20260509T00Z_MSC_RDPS_SpecificHumidity_IsbL-0350_RLatLon0.09_PT063H.grib2 2026-05-09 02:58 556K
20260509T00Z_MSC_RDPS_SpecificHumidity_IsbL-0400_RLatLon0.09_PT063H.grib2 2026-05-09 02:58 540K
20260509T00Z_MSC_RDPS_SpecificHumidity_IsbL-0450_RLatLon0.09_PT063H.grib2 2026-05-09 02:58 596K
20260509T00Z_MSC_RDPS_SpecificHumidity_IsbL-0500_RLatLon0.09_PT063H.grib2 2026-05-09 02:58 532K
20260509T00Z_MSC_RDPS_SpecificHumidity_IsbL-0550_RLatLon0.09_PT063H.grib2 2026-05-09 02:58 589K
20260509T00Z_MSC_RDPS_SpecificHumidity_IsbL-0600_RLatLon0.09_PT063H.grib2 2026-05-09 02:58 660K
20260509T00Z_MSC_RDPS_SpecificHumidity_IsbL-0650_RLatLon0.09_PT063H.grib2 2026-05-09 02:58 575K
20260509T00Z_MSC_RDPS_SpecificHumidity_IsbL-0700_RLatLon0.09_PT063H.grib2 2026-05-09 02:58 617K
20260509T00Z_MSC_RDPS_SpecificHumidity_IsbL-0750_RLatLon0.09_PT063H.grib2 2026-05-09 02:58 673K
20260509T00Z_MSC_RDPS_SpecificHumidity_IsbL-0800_RLatLon0.09_PT063H.grib2 2026-05-09 02:58 756K
20260509T00Z_MSC_RDPS_SpecificHumidity_IsbL-0850_RLatLon0.09_PT063H.grib2 2026-05-09 02:58 827K
20260509T00Z_MSC_RDPS_SpecificHumidity_IsbL-0875_RLatLon0.09_PT063H.grib2 2026-05-09 02:58 843K
20260509T00Z_MSC_RDPS_SpecificHumidity_IsbL-0900_RLatLon0.09_PT063H.grib2 2026-05-09 02:58 852K
20260509T00Z_MSC_RDPS_SpecificHumidity_IsbL-0925_RLatLon0.09_PT063H.grib2 2026-05-09 02:58 859K
20260509T00Z_MSC_RDPS_SpecificHumidity_IsbL-0950_RLatLon0.09_PT063H.grib2 2026-05-09 02:58 867K
20260509T00Z_MSC_RDPS_SpecificHumidity_IsbL-0970_RLatLon0.09_PT063H.grib2 2026-05-09 02:58 724K
20260509T00Z_MSC_RDPS_SpecificHumidity_IsbL-0985_RLatLon0.09_PT063H.grib2 2026-05-09 02:58 859K
20260509T00Z_MSC_RDPS_SpecificHumidity_IsbL-1000_RLatLon0.09_PT063H.grib2 2026-05-09 02:58 709K
20260509T00Z_MSC_RDPS_SpecificHumidity_IsbL-1015_RLatLon0.09_PT063H.grib2 2026-05-09 02:58 697K
20260509T00Z_MSC_RDPS_SpecificHumidity_Sfc_RLatLon0.09_PT063H.grib2 2026-05-09 02:58 330K
20260509T00Z_MSC_RDPS_StormRelativeHelicity_EtaL-10000_RLatLon0.09_PT063H.grib2 2026-05-09 02:58 1.2M
20260509T00Z_MSC_RDPS_StormSeverityIndex_EtaL-10000_RLatLon0.09_PT063H.grib2 2026-05-09 02:58 1.2M
20260509T00Z_MSC_RDPS_Thickness_IsbL-0850to0700_RLatLon0.09_PT063H.grib2 2026-05-09 02:58 249K
20260509T00Z_MSC_RDPS_Thickness_IsbL-1000to0500_RLatLon0.09_PT063H.grib2 2026-05-09 02:58 197K
20260509T00Z_MSC_RDPS_Thickness_IsbL-1000to0850_RLatLon0.09_PT063H.grib2 2026-05-09 02:58 265K
20260509T00Z_MSC_RDPS_TotalCloudCover_Sfc_RLatLon0.09_PT063H.grib2 2026-05-09 02:58 675K
20260509T00Z_MSC_RDPS_TotalTotalsIndex_Sfc_RLatLon0.09_PT063H.grib2 2026-05-09 02:58 2.4M
20260509T00Z_MSC_RDPS_UVIndex-ClearSky_Sfc_RLatLon0.09_PT063H.grib2 2026-05-09 02:58 185K
20260509T00Z_MSC_RDPS_UVIndex_Sfc_RLatLon0.09_PT063H.grib2 2026-05-09 02:58 570K
20260509T00Z_MSC_RDPS_UpwardLongwaveRadiationFlux_NTAtm_RLatLon0.09_PT063H.grib2 2026-05-09 02:58 494K
20260509T00Z_MSC_RDPS_UpwardShortwaveRadiationFlux_NTAtm_RLatLon0.09_PT063H.grib2 2026-05-09 02:58 500K
20260509T00Z_MSC_RDPS_VerticalVelocity_IsbL-0250_RLatLon0.09_PT063H.grib2 2026-05-09 02:58 567K
20260509T00Z_MSC_RDPS_VerticalVelocity_IsbL-0500_RLatLon0.09_PT063H.grib2 2026-05-09 02:58 542K
20260509T00Z_MSC_RDPS_VerticalVelocity_IsbL-0700_RLatLon0.09_PT063H.grib2 2026-05-09 02:58 551K
20260509T00Z_MSC_RDPS_VerticalVelocity_IsbL-0850_RLatLon0.09_PT063H.grib2 2026-05-09 02:58 538K
20260509T00Z_MSC_RDPS_VerticalWindShear_EtaL-6500_RLatLon0.09_PT063H.grib2 2026-05-09 02:58 1.2M
20260509T00Z_MSC_RDPS_WindChill_Sfc_RLatLon0.09_PT063H.grib2 2026-05-09 02:58 1.2M
20260509T00Z_MSC_RDPS_WindDir_AGL-10m_RLatLon0.09_PT063H.grib2 2026-05-09 02:58 1.0M
20260509T00Z_MSC_RDPS_WindDir_AGL-120m_RLatLon0.09_PT063H.grib2 2026-05-09 02:58 622K
20260509T00Z_MSC_RDPS_WindDir_AGL-40m_RLatLon0.09_PT063H.grib2 2026-05-09 02:58 645K
20260509T00Z_MSC_RDPS_WindDir_AGL-80m_RLatLon0.09_PT063H.grib2 2026-05-09 02:58 632K
20260509T00Z_MSC_RDPS_WindDir_IsbL-0001_RLatLon0.09_PT063H.grib2 2026-05-09 02:58 270K
20260509T00Z_MSC_RDPS_WindDir_IsbL-0005_RLatLon0.09_PT063H.grib2 2026-05-09 02:58 386K
20260509T00Z_MSC_RDPS_WindDir_IsbL-0010_RLatLon0.09_PT063H.grib2 2026-05-09 02:58 397K
20260509T00Z_MSC_RDPS_WindDir_IsbL-0020_RLatLon0.09_PT063H.grib2 2026-05-09 02:58 447K
20260509T00Z_MSC_RDPS_WindDir_IsbL-0030_RLatLon0.09_PT063H.grib2 2026-05-09 02:58 433K
20260509T00Z_MSC_RDPS_WindDir_IsbL-0050_RLatLon0.09_PT063H.grib2 2026-05-09 02:58 458K
20260509T00Z_MSC_RDPS_WindDir_IsbL-0100_RLatLon0.09_PT063H.grib2 2026-05-09 02:58 430K
20260509T00Z_MSC_RDPS_WindDir_IsbL-0150_RLatLon0.09_PT063H.grib2 2026-05-09 02:58 422K
20260509T00Z_MSC_RDPS_WindDir_IsbL-0175_RLatLon0.09_PT063H.grib2 2026-05-09 02:58 441K
20260509T00Z_MSC_RDPS_WindDir_IsbL-0200_RLatLon0.09_PT063H.grib2 2026-05-09 02:58 459K
20260509T00Z_MSC_RDPS_WindDir_IsbL-0225_RLatLon0.09_PT063H.grib2 2026-05-09 02:58 459K
20260509T00Z_MSC_RDPS_WindDir_IsbL-0250_RLatLon0.09_PT063H.grib2 2026-05-09 02:58 460K
20260509T00Z_MSC_RDPS_WindDir_IsbL-0275_RLatLon0.09_PT063H.grib2 2026-05-09 02:58 487K
20260509T00Z_MSC_RDPS_WindDir_IsbL-0300_RLatLon0.09_PT063H.grib2 2026-05-09 02:58 487K
20260509T00Z_MSC_RDPS_WindDir_IsbL-0350_RLatLon0.09_PT063H.grib2 2026-05-09 02:58 508K
20260509T00Z_MSC_RDPS_WindDir_IsbL-0400_RLatLon0.09_PT063H.grib2 2026-05-09 02:58 530K
20260509T00Z_MSC_RDPS_WindDir_IsbL-0450_RLatLon0.09_PT063H.grib2 2026-05-09 02:58 555K
20260509T00Z_MSC_RDPS_WindDir_IsbL-0500_RLatLon0.09_PT063H.grib2 2026-05-09 02:58 571K
20260509T00Z_MSC_RDPS_WindDir_IsbL-0550_RLatLon0.09_PT063H.grib2 2026-05-09 02:58 586K
20260509T00Z_MSC_RDPS_WindDir_IsbL-0600_RLatLon0.09_PT063H.grib2 2026-05-09 02:58 601K
20260509T00Z_MSC_RDPS_WindDir_IsbL-0650_RLatLon0.09_PT063H.grib2 2026-05-09 02:58 632K
20260509T00Z_MSC_RDPS_WindDir_IsbL-0700_RLatLon0.09_PT063H.grib2 2026-05-09 02:58 667K
20260509T00Z_MSC_RDPS_WindDir_IsbL-0750_RLatLon0.09_PT063H.grib2 2026-05-09 02:58 710K
20260509T00Z_MSC_RDPS_WindDir_IsbL-0800_RLatLon0.09_PT063H.grib2 2026-05-09 02:58 784K
20260509T00Z_MSC_RDPS_WindDir_IsbL-0850_RLatLon0.09_PT063H.grib2 2026-05-09 02:58 857K
20260509T00Z_MSC_RDPS_WindDir_IsbL-0875_RLatLon0.09_PT063H.grib2 2026-05-09 02:58 882K
20260509T00Z_MSC_RDPS_WindDir_IsbL-0900_RLatLon0.09_PT063H.grib2 2026-05-09 02:58 902K
20260509T00Z_MSC_RDPS_WindDir_IsbL-0925_RLatLon0.09_PT063H.grib2 2026-05-09 02:58 921K
20260509T00Z_MSC_RDPS_WindDir_IsbL-0950_RLatLon0.09_PT063H.grib2 2026-05-09 02:58 923K
20260509T00Z_MSC_RDPS_WindDir_IsbL-0970_RLatLon0.09_PT063H.grib2 2026-05-09 02:58 925K
20260509T00Z_MSC_RDPS_WindDir_IsbL-0985_RLatLon0.09_PT063H.grib2 2026-05-09 02:58 936K
20260509T00Z_MSC_RDPS_WindDir_IsbL-1000_RLatLon0.09_PT063H.grib2 2026-05-09 02:58 955K
20260509T00Z_MSC_RDPS_WindDir_IsbL-1015_RLatLon0.09_PT063H.grib2 2026-05-09 02:58 1.0M
20260509T00Z_MSC_RDPS_WindGust-Max_AGL-10m_RLatLon0.09_PT063H.grib2 2026-05-09 02:58 955K
20260509T00Z_MSC_RDPS_WindGust-Min_AGL-10m_RLatLon0.09_PT063H.grib2 2026-05-09 02:58 1.0M
20260509T00Z_MSC_RDPS_WindGust_AGL-10m_RLatLon0.09_PT063H.grib2 2026-05-09 02:58 950K
20260509T00Z_MSC_RDPS_WindSpeed_AGL-10m_RLatLon0.09_PT063H.grib2 2026-05-09 02:58 851K
20260509T00Z_MSC_RDPS_WindSpeed_AGL-120m_RLatLon0.09_PT063H.grib2 2026-05-09 02:58 556K
20260509T00Z_MSC_RDPS_WindSpeed_AGL-40m_RLatLon0.09_PT063H.grib2 2026-05-09 02:58 559K
20260509T00Z_MSC_RDPS_WindSpeed_AGL-80m_RLatLon0.09_PT063H.grib2 2026-05-09 02:58 557K
20260509T00Z_MSC_RDPS_WindSpeed_IsbL-0001_RLatLon0.09_PT063H.grib2 2026-05-09 02:58 256K
20260509T00Z_MSC_RDPS_WindSpeed_IsbL-0005_RLatLon0.09_PT063H.grib2 2026-05-09 02:58 351K
20260509T00Z_MSC_RDPS_WindSpeed_IsbL-0010_RLatLon0.09_PT063H.grib2 2026-05-09 02:58 367K
20260509T00Z_MSC_RDPS_WindSpeed_IsbL-0020_RLatLon0.09_PT063H.grib2 2026-05-09 02:58 328K
20260509T00Z_MSC_RDPS_WindSpeed_IsbL-0030_RLatLon0.09_PT063H.grib2 2026-05-09 02:58 321K
20260509T00Z_MSC_RDPS_WindSpeed_IsbL-0050_RLatLon0.09_PT063H.grib2 2026-05-09 02:58 449K
20260509T00Z_MSC_RDPS_WindSpeed_IsbL-0100_RLatLon0.09_PT063H.grib2 2026-05-09 02:58 471K
20260509T00Z_MSC_RDPS_WindSpeed_IsbL-0150_RLatLon0.09_PT063H.grib2 2026-05-09 02:58 367K
20260509T00Z_MSC_RDPS_WindSpeed_IsbL-0175_RLatLon0.09_PT063H.grib2 2026-05-09 02:58 415K
20260509T00Z_MSC_RDPS_WindSpeed_IsbL-0200_RLatLon0.09_PT063H.grib2 2026-05-09 02:58 430K
20260509T00Z_MSC_RDPS_WindSpeed_IsbL-0225_RLatLon0.09_PT063H.grib2 2026-05-09 02:58 441K
20260509T00Z_MSC_RDPS_WindSpeed_IsbL-0250_RLatLon0.09_PT063H.grib2 2026-05-09 02:58 447K
20260509T00Z_MSC_RDPS_WindSpeed_IsbL-0275_RLatLon0.09_PT063H.grib2 2026-05-09 02:58 470K
20260509T00Z_MSC_RDPS_WindSpeed_IsbL-0300_RLatLon0.09_PT063H.grib2 2026-05-09 02:58 469K
20260509T00Z_MSC_RDPS_WindSpeed_IsbL-0350_RLatLon0.09_PT063H.grib2 2026-05-09 02:58 477K
20260509T00Z_MSC_RDPS_WindSpeed_IsbL-0400_RLatLon0.09_PT063H.grib2 2026-05-09 02:58 463K
20260509T00Z_MSC_RDPS_WindSpeed_IsbL-0450_RLatLon0.09_PT063H.grib2 2026-05-09 02:58 466K
20260509T00Z_MSC_RDPS_WindSpeed_IsbL-0500_RLatLon0.09_PT063H.grib2 2026-05-09 02:58 470K
20260509T00Z_MSC_RDPS_WindSpeed_IsbL-0550_RLatLon0.09_PT063H.grib2 2026-05-09 02:58 587K
20260509T00Z_MSC_RDPS_WindSpeed_IsbL-0600_RLatLon0.09_PT063H.grib2 2026-05-09 02:58 595K
20260509T00Z_MSC_RDPS_WindSpeed_IsbL-0650_RLatLon0.09_PT063H.grib2 2026-05-09 02:58 657K
20260509T00Z_MSC_RDPS_WindSpeed_IsbL-0700_RLatLon0.09_PT063H.grib2 2026-05-09 02:58 636K
20260509T00Z_MSC_RDPS_WindSpeed_IsbL-0750_RLatLon0.09_PT063H.grib2 2026-05-09 02:58 665K
20260509T00Z_MSC_RDPS_WindSpeed_IsbL-0800_RLatLon0.09_PT063H.grib2 2026-05-09 02:58 721K
20260509T00Z_MSC_RDPS_WindSpeed_IsbL-0850_RLatLon0.09_PT063H.grib2 2026-05-09 02:58 779K
20260509T00Z_MSC_RDPS_WindSpeed_IsbL-0875_RLatLon0.09_PT063H.grib2 2026-05-09 02:58 797K
20260509T00Z_MSC_RDPS_WindSpeed_IsbL-0900_RLatLon0.09_PT063H.grib2 2026-05-09 02:58 858K
20260509T00Z_MSC_RDPS_WindSpeed_IsbL-0925_RLatLon0.09_PT063H.grib2 2026-05-09 02:58 872K
20260509T00Z_MSC_RDPS_WindSpeed_IsbL-0950_RLatLon0.09_PT063H.grib2 2026-05-09 02:58 873K
20260509T00Z_MSC_RDPS_WindSpeed_IsbL-0970_RLatLon0.09_PT063H.grib2 2026-05-09 02:58 867K
20260509T00Z_MSC_RDPS_WindSpeed_IsbL-0985_RLatLon0.09_PT063H.grib2 2026-05-09 02:58 860K
20260509T00Z_MSC_RDPS_WindSpeed_IsbL-1000_RLatLon0.09_PT063H.grib2 2026-05-09 02:58 857K
20260509T00Z_MSC_RDPS_WindSpeed_IsbL-1015_RLatLon0.09_PT063H.grib2 2026-05-09 02:58 852K
20260509T00Z_MSC_RDPS_WindU_AGL-10m_RLatLon0.09_PT063H.grib2 2026-05-09 02:58 439K
20260509T00Z_MSC_RDPS_WindU_AGL-120m_RLatLon0.09_PT063H.grib2 2026-05-09 02:58 424K
20260509T00Z_MSC_RDPS_WindU_AGL-40m_RLatLon0.09_PT063H.grib2 2026-05-09 02:58 545K
20260509T00Z_MSC_RDPS_WindU_AGL-80m_RLatLon0.09_PT063H.grib2 2026-05-09 02:58 425K
20260509T00Z_MSC_RDPS_WindU_IsbL-0001_RLatLon0.09_PT063H.grib2 2026-05-09 02:58 295K
20260509T00Z_MSC_RDPS_WindU_IsbL-0005_RLatLon0.09_PT063H.grib2 2026-05-09 02:58 287K
20260509T00Z_MSC_RDPS_WindU_IsbL-0010_RLatLon0.09_PT063H.grib2 2026-05-09 02:58 299K
20260509T00Z_MSC_RDPS_WindU_IsbL-0020_RLatLon0.09_PT063H.grib2 2026-05-09 02:58 318K
20260509T00Z_MSC_RDPS_WindU_IsbL-0030_RLatLon0.09_PT063H.grib2 2026-05-09 02:58 353K
20260509T00Z_MSC_RDPS_WindU_IsbL-0050_RLatLon0.09_PT063H.grib2 2026-05-09 02:58 340K
20260509T00Z_MSC_RDPS_WindU_IsbL-0100_RLatLon0.09_PT063H.grib2 2026-05-09 02:58 425K
20260509T00Z_MSC_RDPS_WindU_IsbL-0150_RLatLon0.09_PT063H.grib2 2026-05-09 02:58 384K
20260509T00Z_MSC_RDPS_WindU_IsbL-0175_RLatLon0.09_PT063H.grib2 2026-05-09 02:58 407K
20260509T00Z_MSC_RDPS_WindU_IsbL-0200_RLatLon0.09_PT063H.grib2 2026-05-09 02:58 423K
20260509T00Z_MSC_RDPS_WindU_IsbL-0225_RLatLon0.09_PT063H.grib2 2026-05-09 02:58 433K
20260509T00Z_MSC_RDPS_WindU_IsbL-0250_RLatLon0.09_PT063H.grib2 2026-05-09 02:58 437K
20260509T00Z_MSC_RDPS_WindU_IsbL-0275_RLatLon0.09_PT063H.grib2 2026-05-09 02:58 358K
20260509T00Z_MSC_RDPS_WindU_IsbL-0300_RLatLon0.09_PT063H.grib2 2026-05-09 02:58 355K
20260509T00Z_MSC_RDPS_WindU_IsbL-0350_RLatLon0.09_PT063H.grib2 2026-05-09 02:58 362K
20260509T00Z_MSC_RDPS_WindU_IsbL-0400_RLatLon0.09_PT063H.grib2 2026-05-09 02:58 468K
20260509T00Z_MSC_RDPS_WindU_IsbL-0450_RLatLon0.09_PT063H.grib2 2026-05-09 02:58 471K
20260509T00Z_MSC_RDPS_WindU_IsbL-0500_RLatLon0.09_PT063H.grib2 2026-05-09 02:58 474K
20260509T00Z_MSC_RDPS_WindU_IsbL-0550_RLatLon0.09_PT063H.grib2 2026-05-09 02:58 456K
20260509T00Z_MSC_RDPS_WindU_IsbL-0600_RLatLon0.09_PT063H.grib2 2026-05-09 02:58 464K
20260509T00Z_MSC_RDPS_WindU_IsbL-0650_RLatLon0.09_PT063H.grib2 2026-05-09 02:58 482K
20260509T00Z_MSC_RDPS_WindU_IsbL-0700_RLatLon0.09_PT063H.grib2 2026-05-09 02:58 503K
20260509T00Z_MSC_RDPS_WindU_IsbL-0750_RLatLon0.09_PT063H.grib2 2026-05-09 02:58 530K
20260509T00Z_MSC_RDPS_WindU_IsbL-0800_RLatLon0.09_PT063H.grib2 2026-05-09 02:58 580K
20260509T00Z_MSC_RDPS_WindU_IsbL-0850_RLatLon0.09_PT063H.grib2 2026-05-09 02:58 631K
20260509T00Z_MSC_RDPS_WindU_IsbL-0875_RLatLon0.09_PT063H.grib2 2026-05-09 02:58 647K
20260509T00Z_MSC_RDPS_WindU_IsbL-0900_RLatLon0.09_PT063H.grib2 2026-05-09 02:58 659K
20260509T00Z_MSC_RDPS_WindU_IsbL-0925_RLatLon0.09_PT063H.grib2 2026-05-09 02:58 669K
20260509T00Z_MSC_RDPS_WindU_IsbL-0950_RLatLon0.09_PT063H.grib2 2026-05-09 02:58 667K
20260509T00Z_MSC_RDPS_WindU_IsbL-0970_RLatLon0.09_PT063H.grib2 2026-05-09 02:58 660K
20260509T00Z_MSC_RDPS_WindU_IsbL-0985_RLatLon0.09_PT063H.grib2 2026-05-09 02:58 797K
20260509T00Z_MSC_RDPS_WindU_IsbL-1000_RLatLon0.09_PT063H.grib2 2026-05-09 02:58 795K
20260509T00Z_MSC_RDPS_WindU_IsbL-1015_RLatLon0.09_PT063H.grib2 2026-05-09 02:58 792K
20260509T00Z_MSC_RDPS_WindV_AGL-10m_RLatLon0.09_PT063H.grib2 2026-05-09 02:58 435K
20260509T00Z_MSC_RDPS_WindV_AGL-120m_RLatLon0.09_PT063H.grib2 2026-05-09 02:58 538K
20260509T00Z_MSC_RDPS_WindV_AGL-40m_RLatLon0.09_PT063H.grib2 2026-05-09 02:58 539K
20260509T00Z_MSC_RDPS_WindV_AGL-80m_RLatLon0.09_PT063H.grib2 2026-05-09 02:58 538K
20260509T00Z_MSC_RDPS_WindV_IsbL-0001_RLatLon0.09_PT063H.grib2 2026-05-09 02:58 248K
20260509T00Z_MSC_RDPS_WindV_IsbL-0005_RLatLon0.09_PT063H.grib2 2026-05-09 02:58 376K
20260509T00Z_MSC_RDPS_WindV_IsbL-0010_RLatLon0.09_PT063H.grib2 2026-05-09 02:58 302K
20260509T00Z_MSC_RDPS_WindV_IsbL-0020_RLatLon0.09_PT063H.grib2 2026-05-09 02:58 321K
20260509T00Z_MSC_RDPS_WindV_IsbL-0030_RLatLon0.09_PT063H.grib2 2026-05-09 02:58 316K
20260509T00Z_MSC_RDPS_WindV_IsbL-0050_RLatLon0.09_PT063H.grib2 2026-05-09 02:58 340K
20260509T00Z_MSC_RDPS_WindV_IsbL-0100_RLatLon0.09_PT063H.grib2 2026-05-09 02:58 422K
20260509T00Z_MSC_RDPS_WindV_IsbL-0150_RLatLon0.09_PT063H.grib2 2026-05-09 02:58 384K
20260509T00Z_MSC_RDPS_WindV_IsbL-0175_RLatLon0.09_PT063H.grib2 2026-05-09 02:58 406K
20260509T00Z_MSC_RDPS_WindV_IsbL-0200_RLatLon0.09_PT063H.grib2 2026-05-09 02:58 326K
20260509T00Z_MSC_RDPS_WindV_IsbL-0225_RLatLon0.09_PT063H.grib2 2026-05-09 02:58 333K
20260509T00Z_MSC_RDPS_WindV_IsbL-0250_RLatLon0.09_PT063H.grib2 2026-05-09 02:58 336K
20260509T00Z_MSC_RDPS_WindV_IsbL-0275_RLatLon0.09_PT063H.grib2 2026-05-09 02:58 355K
20260509T00Z_MSC_RDPS_WindV_IsbL-0300_RLatLon0.09_PT063H.grib2 2026-05-09 02:58 352K
20260509T00Z_MSC_RDPS_WindV_IsbL-0350_RLatLon0.09_PT063H.grib2 2026-05-09 02:58 360K
20260509T00Z_MSC_RDPS_WindV_IsbL-0400_RLatLon0.09_PT063H.grib2 2026-05-09 02:58 362K
20260509T00Z_MSC_RDPS_WindV_IsbL-0450_RLatLon0.09_PT063H.grib2 2026-05-09 02:58 468K
20260509T00Z_MSC_RDPS_WindV_IsbL-0500_RLatLon0.09_PT063H.grib2 2026-05-09 02:58 471K
20260509T00Z_MSC_RDPS_WindV_IsbL-0550_RLatLon0.09_PT063H.grib2 2026-05-09 02:58 471K
20260509T00Z_MSC_RDPS_WindV_IsbL-0600_RLatLon0.09_PT063H.grib2 2026-05-09 02:58 477K
20260509T00Z_MSC_RDPS_WindV_IsbL-0650_RLatLon0.09_PT063H.grib2 2026-05-09 02:58 478K
20260509T00Z_MSC_RDPS_WindV_IsbL-0700_RLatLon0.09_PT063H.grib2 2026-05-09 02:58 498K
20260509T00Z_MSC_RDPS_WindV_IsbL-0750_RLatLon0.09_PT063H.grib2 2026-05-09 02:58 526K
20260509T00Z_MSC_RDPS_WindV_IsbL-0800_RLatLon0.09_PT063H.grib2 2026-05-09 02:58 574K
20260509T00Z_MSC_RDPS_WindV_IsbL-0850_RLatLon0.09_PT063H.grib2 2026-05-09 02:58 625K
20260509T00Z_MSC_RDPS_WindV_IsbL-0875_RLatLon0.09_PT063H.grib2 2026-05-09 02:58 641K
20260509T00Z_MSC_RDPS_WindV_IsbL-0900_RLatLon0.09_PT063H.grib2 2026-05-09 02:58 652K
20260509T00Z_MSC_RDPS_WindV_IsbL-0925_RLatLon0.09_PT063H.grib2 2026-05-09 02:58 663K
20260509T00Z_MSC_RDPS_WindV_IsbL-0950_RLatLon0.09_PT063H.grib2 2026-05-09 02:58 661K
20260509T00Z_MSC_RDPS_WindV_IsbL-0970_RLatLon0.09_PT063H.grib2 2026-05-09 02:58 796K
20260509T00Z_MSC_RDPS_WindV_IsbL-0985_RLatLon0.09_PT063H.grib2 2026-05-09 02:58 793K
20260509T00Z_MSC_RDPS_WindV_IsbL-1000_RLatLon0.09_PT063H.grib2 2026-05-09 02:58 790K
20260509T00Z_MSC_RDPS_WindV_IsbL-1015_RLatLon0.09_PT063H.grib2 2026-05-09 02:58 832K